TIME,DELAY(SENSOR),PRES,T(CTD),SAL,OXYGEN,RAWTEMP,T(OPTODE),TCPHASE,FLUOR,BETA(BETA700),BETA(BETA412),BETA(BETA440),CDOM,C(CSC),ED(ED412.40),ED(ED444.00),ED(ED489.70),ED(ED554.30),LU(LU411.80),LU(LU443.40),LU(LU489.60),LU(LU554.10),COMP,TILTX,TILTX(TILTY),CHECK
1353446730,5809,495.4500122070312500,6.4394998550415040,34.1299018859863300,77.4985427856445300,604.9406127929688000,6.4245510101318360,49.2751083374023440,52,103,89,80,79,15154,2147750089,2147419382,2148002633,2147875437,2147628790,2147077376,2148244580,2147197860,1351,4,13,26268
1353446845,5809,484.1199951171875000,6.5440998077392580,34.1236000061035160,80.7596435546875000,601.9357910156250000,6.5217170715332030,48.8475914001464840,52,103,87,80,78,15157,2147749677,2147418084,2148006098,2147874185,2147629778,2147073563,2148245037,2147197686,1908,4,13,62796
1353446960,5808,472.6099853515625000,6.6648998260498050,34.1166000366210940,85.8859176635742200,598.0681762695312000,6.6466541290283200,48.2025184631347660,51,105,85,81,78,15157,2147747712,2147420525,2148006637,2147874203,2147629504,2147073170,2148245796,2147199734,2225,4,13,40606
1353447065,5808,461.8800048828125000,6.8094000816345215,34.1034011840820300,92.1942062377929700,593.6918945312500000,6.7878527641296390,47.4333000183105500,52,104,91,80,79,15158,2147744329,2147423067,2148006592,2147873042,2147630070,2147083803,2148246628,2147199232,2712,4,13,28999
1353447168,5810,451.2300109863281000,6.9386000633239750,34.0936012268066400,99.3843231201171900,589.3068237304688000,6.9291567802429200,46.5951385498046900,52,105,89,80,78,15154,2147746505,2147419666,2148003940,2147872758,2147627328,2147078921,2148241828,2147199277,362,4,13,8885
1353447283,5810,439.4200134277344000,7.1289000511169430,34.0803985595703100,109.5089035034179700,583.4392700195312000,7.1179499626159670,45.4629096984863300,51,105,89,79,78,15158,2147740928,2147420260,2148006592,2147875392,2147628352,2147080301,2148241417,2147201133,758,4,13,11945
1353447401,5806,429.2500000000000000,7.4970002174377440,34.0797004699707000,119.8369979858398400,571.8389282226562000,7.4902877807617190,44.2641487121582000,51,104,90,81,77,15158,2147745526,2147418980,2148002386,2147873362,2147624813,2147079652,2148239771,2147198692,943,4,13,33271
1353447588,5808,418.4299926757812500,7.9545001983642580,34.0857009887695300,132.7306060791015600,558.2852783203125000,7.9238171577453610,42.8504295349121100,50,104,86,79,76,15158,2147746660,2147421193,2148004425,2147876233,2147621238,2147086089,2148236781,2147201344,891,4,13,35086
1353447757,5808,406.0599975585937500,8.1892995834350590,34.0909004211425800,141.6806945800781200,550.5244140625000000,8.1713581085205080,41.9400291442871100,50,103,89,80,75,15153,2147742061,2147420699,2148005037,2147874898,2147622080,2147091721,2148234294,2147196763,1936,4,13,2160
1353447884,5808,395.0599975585937500,8.5058002471923830,34.0951004028320300,147.4772033691406200,540.3400878906250000,8.4954395294189450,41.2787895202636700,50,107,88,80,74,15154,2147740489,2147420480,2148001161,2147875821,2147618889,2147090249,2148236690,2147201417,2680,4,13,12679
1353448013,5806,383.8699951171875000,8.8044004440307620,34.1001014709472660,157.5366058349609400,531.0695190429688000,8.7897262573242190,40.3122901916503900,50,106,88,81,76,15152,2147740260,2147422052,2148002486,2147876132,2147615387,2147092196,2148235355,2147201362,1606,4,13,17834
1353448140,5805,372.8699951171875000,8.9939002990722660,34.0966987609863300,166.0603942871093800,524.1453247070312000,9.0090923309326170,39.5427398681640600,50,106,84,80,74,15156,2147740260,2147419510,2148000832,2147874194,2147619785,2147092736,2148233280,2147203410,2080,4,13,61718
1353448281,5805,361.8999938964844000,9.2531995773315430,34.1022987365722660,174.0617980957031200,516.7692871093750000,9.2423734664917000,38.8328285217285160,50,106,89,80,73,15154,2147736182,2147419538,2148001709,2147874733,2147612242,2147097718,2148230354,2147197888,1172,4,13,59692
1353448432,5810,350.2099914550781000,9.4106998443603520,34.0959014892578100,176.6407928466797000,511.4385070800781000,9.4107170104980470,38.5597801208496100,50,104,88,81,73,15155,2147735963,2147421056,2148003291,2147872237,2147615826,2147098596,2148223734,2147201334,811,4,13,59039
1353448592,5809,336.9599914550781000,9.7108001708984380,34.0984992980957000,182.5673065185547000,502.3562927246094000,9.6970596313476560,37.9941101074218750,50,103,89,80,72,15156,2147735497,2147422354,2148003565,2147875574,2147612260,2147103222,2148224950,2147200310,3581,4,13,17865
1353448696,5808,325.7999877929687500,9.8090000152587890,34.0960006713867200,183.7906951904297000,498.6947021484375000,9.8123359680175780,37.8492393493652340,50,104,89,79,72,15157,2147733476,2147419190,2148001124,2147874084,2147608064,2147104832,2148223515,2147204004,2802,3,13,62283
1353448799,5808,314.3900146484375000,10.2166004180908200,34.1020011901855500,189.7389068603515600,486.2013854980469000,10.2049703598022460,37.2427711486816400,49,104,90,81,70,15155,2147733686,2147422893,2148003492,2147873636,2147612534,2147100050,2148222089,2147199552,285,4,13,42066
1353448899,5809,304.7500000000000000,10.5113000869750980,34.1001014709472660,192.7225952148437500,477.2933959960937500,10.4842901229858400,36.8995399475097660,48,104,89,80,71,15155,2147734235,2147422217,2148000923,2147876690,2147611812,2147105737,2148221659,2147202971,336,4,13,33326
1353449093,5811,294.4500122070312500,10.9799995422363280,34.1360015869140600,199.5117034912109400,461.7134094238281000,10.9716196060180660,36.2148895263671900,48,106,88,81,71,15152,2147729426,2147422820,2148002889,2147875702,2147607030,2147108553,2148220726,2147203538,1373,4,13,26070
1353449286,5808,282.0700073242187500,11.3434000015258790,34.1501007080078100,202.2776947021484400,450.1412048339844000,11.3326396942138670,35.8559989929199200,49,105,87,80,70,15152,2147732470,2147421988,2148008685,2147872192,2147601371,2147114194,2148219419,2147201472,867,4,13,16612
1353449401,5810,271.0000000000000000,11.5754003524780270,34.1609992980957000,204.0558929443359400,442.4526977539062500,11.5720796585083000,35.6241111755371100,49,106,90,79,70,15150,2147729865,2147425938,2148013750,2147876077,2147603172,2147114560,2148218651,2147205641,1039,3,13,61627
1353449506,5809,260.5400085449219000,12.0177001953125000,34.1657981872558600,204.8990936279297000,428.0783081054687500,12.0188798904418950,35.3428993225097660,49,105,86,81,70,15151,2147729261,2147426898,2148021248,2147875181,2147603099,2147117330,2148219657,2147206893,2728,3,13,35579
1353449633,5809,248.8600006103515600,12.3747997283935550,34.1682014465332000,209.6795959472656200,416.5878906250000000,12.3752698898315430,34.8797798156738300,48,103,86,80,70,15152,2147726738,2147430701,2148036964,2147877302,2147600521,2147125933,2148229860,2147206793,1892,3,13,61242
1353449760,5808,238.8999938964843800,12.5708999633789060,34.1804008483886700,211.3639984130859400,410.1900939941406000,12.5734300613403320,34.6814994812011700,49,103,89,80,68,15151,2147728018,2147439149,2148049060,2147877202,2147598884,2147134720,2148231835,2147205988,1160,3,14,31338
1353449937,5810,228.4799957275390600,13.5179004669189450,34.2330017089843750,214.5915985107422000,380.5593872070312500,13.4888000488281250,34.0402183532714840,49,102,86,79,68,15146,2147726436,2147442870,2148071378,2147873398,2147594825,2147140480,2148241691,2147210678,2213,4,14,21400
1353450157,5809,215.9100036621093800,13.8866996765136720,34.2691993713378900,216.6779937744140600,367.5578918457031000,13.8893299102783200,33.7260398864746100,49,101,87,79,68,15147,2147726107,2147460827,2148102884,2147873280,2147593033,2147152064,2148251821,2147207634,3236,3,14,46293
1353450320,5808,204.6900024414062500,15.3310003280639650,34.4275016784668000,215.4615936279297000,319.4179992675781000,15.3675899505615230,33.0774688720703100,49,102,89,81,67,15146,2147727643,2147479734,2148141229,2147874377,2147590354,2147173110,2148267565,2147208868,1922,3,13,1718
1353450423,5807,198.1699981689453000,15.9716997146606450,34.5088005065918000,216.4812927246093800,298.4982910156250000,16.0081405639648440,32.7178497314453100,49,103,87,81,67,15142,2147728777,2147494116,2148176182,2147874944,2147587657,2147178825,2148275437,2147214180,1963,3,14,55730
1353450498,5807,194.0500030517578000,16.5379009246826170,34.5824012756347660,216.9523925781250000,280.0852966308594000,16.5712890625000000,32.4286003112793000,49,104,87,79,66,15142,2147728009,2147503762,2148203638,2147872246,2147586029,2147196589,2148291154,2147213494,1303,3,14,3536
1353450577,5807,190.5099945068359400,17.4242992401123050,34.7028999328613300,217.2686004638672000,254.6000061035156200,17.3500404357910160,32.0512008666992200,50,100,90,80,65,15140,2147729572,2147517513,2148227117,2147871734,2147582829,2147206198,2148298742,2147215954,510,3,14,27462
1353450668,5807,186.8999938964843800,18.1625995635986330,34.8228988647460940,219.9100036621093800,229.9067993164062500,18.1041793823242200,31.5679092407226560,50,102,91,81,65,15139,2147728457,2147529371,2148257298,2147874496,2147581010,2147218185,2148312704,2147220434,1006,3,15,34185
1353450771,5809,182.9299926757812500,18.2786006927490230,34.8545989990234400,223.4109039306640600,224.6490020751953000,18.2647495269775400,31.3142108917236330,50,103,89,79,65,15137,2147734957,2147551067,2148297444,2147876032,2147580763,2147242496,2148323648,2147220406,25,3,14,37773
1353450876,5806,178.7700042724609400,18.7439002990722660,34.9259986877441400,223.7198028564453000,209.6183929443359400,18.7237796783447270,31.0931892395019530,50,102,87,81,64,15131,2147735552,2147567003,2148321938,2147875913,2147581248,2147249243,2148336868,2147224475,3031,3,15,2028
1353450979,5807,174.9299926757812500,18.8309993743896500,34.9435005187988300,225.0283966064453000,206.3737945556640600,18.8228797912597660,30.9827499389648440,50,103,87,80,63,15135,2147735844,2147579355,2148346020,2147872612,2147581760,2147271012,2148349037,2147223881,2321,3,15,9427
1353451094,5808,170.6399993896484400,18.9437007904052730,34.9622001647949200,225.6692962646484400,202.5140075683593800,18.9407806396484380,30.8981800079345700,50,102,87,80,63,15137,2147744365,2147599460,2148378121,2147874980,2147582829,2147279021,2148366418,2147224146,2284,3,15,64209
1353451193,5810,166.3200073242187500,19.2324008941650400,34.9994010925293000,224.7908020019531200,193.2449035644531200,19.2239608764648440,30.8174896240234380,51,103,86,80,64,15128,2147748946,2147621988,2148421540,2147873325,2147585225,2147295670,2148387273,2147226806,2294,2,15,27144
1353451272,5804,162.5500030517578000,19.4939994812011720,35.0288009643554700,224.0247955322265600,184.6439056396484400,19.4867992401123050,30.7406196594238280,52,102,88,81,63,15132,2147761380,2147646656,2148475328,2147876964,2147589266,2147313225,2148420096,2147232402,1169,2,15,7957
1353451351,5808,158.4900054931640600,19.6193008422851560,35.0404014587402340,223.2861022949218800,180.7113037109375000,19.6070003509521500,30.7257194519042970,54,103,89,81,63,15131,2147776100,2147680448,2148533933,2147875300,2147594596,2147338422,2148454418,2147234075,320,3,15,48357
1353451430,5805,154.2299957275390600,19.7187995910644530,35.0433006286621100,222.0536956787109400,176.8775024414062500,19.7242107391357420,30.7370090484619140,57,105,87,80,63,15124,2147788909,2147720822,2148611181,2147873124,2147601170,2147371721,2148482377,2147234752,550,2,15,6580
1353451499,5809,150.3200073242187500,19.7973995208740230,35.0523986816406250,221.6734924316406200,174.6367034912109400,19.7927207946777340,30.7266998291015620,58,102,86,80,63,15124,2147806153,2147760841,2148684772,2147875026,2147609654,2147389321,2148515986,2147236077,363,2,15,32279
1353451566,5806,146.6199951171875000,19.9255008697509770,35.0679016113281250,221.3815002441406200,170.5657958984375000,19.9172000885009770,30.6871604919433600,59,105,90,79,62,15124,2147827145,2147803574,2148757869,2147872877,2147616749,2147417197,2148550381,2147237970,3129,2,15,39991
1353451645,5810,142.6900024414062500,20.1364994049072270,35.0898017883300800,221.2487945556640600,163.1808013916015600,20.1431007385253900,30.5956001281738280,61,108,91,81,63,15119,2147854710,2147855780,2148856256,2147877787,2147629330,2147444726,2148601874,2147242907,3346,2,15,62196
1353451748,5809,139.0399932861328000,20.4689998626709000,35.1323013305664060,222.0926971435547000,153.5807952880859400,20.4368896484375000,30.4251308441162100,68,107,88,81,62,15114,2147884333,2147925741,2148979099,2147878976,2147640950,2147488082,2148660772,2147249161,140,2,15,15020
1353451889,5808,135.1600036621093800,20.8064994812011720,35.1871986389160160,223.5359954833984400,142.3289947509765600,20.7814502716064450,30.2040691375732420,72,109,88,80,63,15108,2147932900,2148024585,2149153837,2147880877,2147660480,2147545060,2148734409,2147254326,3214,2,15,11468
1353452052,5807,131.2599945068359400,21.0132999420166000,35.1996002197265600,226.5164031982422000,135.2418060302734400,20.9986305236816400,29.9628791809082030,77,110,87,80,62,15101,2147992338,2148135396,2149344201,2147882258,2147687030,2147605915,2148820608,2147258715,2252,2,15,58587
1353452191,5808,126.5199966430664000,21.2124004364013670,35.2290992736816400,228.2971038818359400,128.4418029785156200,21.2071208953857420,29.7870101928710940,81,113,86,80,63,15088,2148113225,2148339099,2149706102,2147888384,2147736064,2147720310,2148972745,2147271341,2843,2,15,16790
1353452282,5808,122.3899993896484400,21.2467002868652340,35.2196006774902340,227.8594970703125000,127.2294998168945300,21.2443008422851560,29.7925605773925780,91,118,88,82,62,15085,2148234121,2148541723,2150047094,2147892004,2147791140,2147827949,2149118747,2147284763,2152,2,15,48514
1353452361,5807,118.8300018310546900,21.5256004333496100,35.2271003723144500,227.4532928466797000,118.4529037475586000,21.5136108398437500,29.6985492706298830,99,115,88,82,63,15070,2148374665,2148776850,2150426258,2147901284,2147842925,2147934912,2149273984,2147300608,1142,2,16,27572
1353452466,5811,114.7500000000000000,21.5657997131347660,35.2307014465332000,229.9562072753906200,116.8936996459961000,21.5614700317382800,29.5569801330566400,97,116,89,83,62,15073,2148610212,2149174208,2151095917,2147910957,2147937636,2148133522,2149547008,2147323355,422,2,15,35230
1353452557,5809,110.6500015258789000,21.5783004760742200,35.2285995483398440,230.8446960449218800,116.4583969116211000,21.5748405456542970,29.5086593627929700,98,116,90,83,61,15075,2148826944,2149490550,2151575305,2147928219,2148020233,2148276626,2149744649,2147341421,5,2,15,27235
1353452648,5808,106.4199981689453100,21.6301994323730470,35.2341995239257800,231.2313995361328000,114.9537963867187500,21.6210403442382800,29.4708595275878900,97,118,88,82,62,15069,2149179547,2150015195,2152395337,2147951570,2148163437,2148534674,2150076845,2147369865,121,2,15,49280
1353452741,5807,102.8300018310546900,21.7518005371093750,35.2435989379882800,231.8968963623047000,110.9934997558593800,21.7426700592041000,29.3879508972167970,102,119,90,83,61,15065,2149470674,2150355858,2152841033,2147968521,2148276635,2148687570,2150252982,2147387492,596,2,15,62902
1353452868,5810,99.3600006103515600,21.8621997833251950,35.2466011047363300,232.7118988037109400,107.7739028930664000,21.8415794372558600,29.3078708648681640,106,116,91,82,60,15062,2149852662,2150766912,2153346971,2147988544,2148427126,2148859108,2150436288,2147411940,337,2,15,32097
1353452923,5808,98.0500030517578100,21.9536991119384770,35.2430000305175800,232.6887969970703000,106.0549011230468800,21.8944091796875000,29.2869396209716800,105,117,88,83,62,15055,2150042651,2150974939,2153618523,2147999387,2148500315,2148952758,2150537938,2147423734,550,3,15,32152
1353452990,5806,96.3199996948242200,22.0757007598876950,35.2326011657714840,233.7209930419922000,102.7957000732421900,21.9945907592773440,29.1963996887207030,114,115,90,83,61,15051,2150219282,2151160073,2153830646,2148012873,2148570057,2149034294,2150622784,2147435465,349,2,15,45786
1353453069,5807,93.7900009155273400,22.0958003997802730,35.2332992553710940,235.0830993652343800,99.8175735473632800,22.0861701965332030,29.0945301055908200,105,117,91,83,61,15048,2150573705,2151543780,2154317915,2148039323,2148708937,2149205120,2150795730,2147457572,670,3,15,17019
1353453124,5806,90.9700012207031200,22.2269001007080080,35.2230987548828100,235.8032073974609400,94.5051193237304700,22.2495994567871100,28.9933395385742200,114,118,90,83,62,15044,2151035684,2152063369,2154975296,2148074733,2148891556,2149431350,2151063606,2147484214,3327,2,16,38523
1353453179,5819,88.2699966430664000,22.4218006134033200,35.2176017761230500,238.2566070556640600,88.0376815795898400,22.4486904144287100,28.7979507446289060,117,121,90,81,62,15034,2151500315,2152594870,2155646107,2148113691,2149082614,2149670537,2151318354,2147515812,2697,1,15,19737
1353453234,5808,86.2200012207031200,22.6585998535156250,35.2113990783691400,240.5971984863281200,82.1143035888671900,22.6311607360839840,28.6167106628417970,125,122,91,83,61,15024,2151825371,2152950464,2156065371,2148139593,2149210733,2149824356,2151483355,2147535707,2212,2,15,13748
1353453289,5807,85.1200027465820300,22.7043991088867200,35.2108001708984400,241.6596069335937500,80.6911087036132800,22.6750202178955080,28.5508708953857420,131,124,91,83,61,15023,2151963648,2153095753,2156210971,2148152310,2149265069,2149876452,2151531675,2147545746,1709,2,16,64860
1353453403,5807,83.2699966430664000,22.8861007690429700,35.2001991271972660,242.6483001708984400,73.3760070800781200,22.9006004333496100,28.4147090911865230,122,123,88,84,61,15017,2152350701,2153454089,2156550326,2148173494,2149416795,2149993865,2151630555,2147561874,889,2,15,14993
1353453494,5807,81.6600036621093800,23.1028995513916000,35.1926994323730500,243.6764984130859400,67.5552062988281200,23.0802497863769530,28.2959403991699220,124,124,90,85,60,15009,2153098550,2154289243,2157540809,2148221248,2149714742,2150330166,2152011163,2147604516,3069,1,16,14701
1353453681,5809,79.1299972534179700,23.2479000091552730,35.1898002624511700,245.4306945800781200,62.2978401184082000,23.2426300048828120,28.1529808044433600,114,125,92,85,60,15009,2155406857,2156977682,2160870921,2148393033,2150698560,2151516169,2153366363,2147754752,2452,2,16,11124
1353453736,5809,76.8700027465820300,23.2837009429931640,35.1888999938964840,245.6999053955078000,60.7005691528320300,23.2919807434082030,28.1213493347167970,113,126,92,85,59,15011,2156715053,2158410276,2162480621,2148502902,2151269403,2152161892,2154050121,2147839451,2401,2,16,57770
1353453791,5807,74.2699966430664000,23.4209003448486330,35.1825981140136700,245.8209991455078000,57.1568107604980500,23.4015293121337900,28.0720100402832030,107,126,94,85,58,15007,2158175890,2159934290,2164093449,2148636608,2151924781,2152869065,2154754112,2147930898,2630,2,16,49113
1353453846,5808,71.7699966430664000,23.5403995513916000,35.1782989501953100,245.7006072998047000,52.6375389099121100,23.5413093566894530,28.0210494995117200,105,125,93,83,60,15001,2159762788,2161579392,2165830857,2148775515,2152657161,2153661467,2155544914,2148028626,3119,2,15,46145
1353453901,5809,69.6900024414062500,23.7961997985839840,35.1678009033203100,245.4624938964843800,45.9291496276855500,23.7489700317382800,27.9484901428222660,100,127,90,85,60,15008,2161495506,2163409536,2167819108,2148958518,2153478226,2154568996,2156470235,2148149549,3149,1,16,13822
1353453979,5806,67.2200012207031200,23.8353996276855470,35.1719017028808600,246.0352935791015600,43.4356384277343750,23.8262100219726560,27.8925800323486330,93,129,93,85,60,15002,2164052489,2166027373,2170507638,2149233069,2154733366,2155906532,2157748141,2148318546,2849,2,16,11265
1353454034,5807,65.0899963378906200,24.1539993286132800,35.1655006408691400,245.1197052001953000,34.4824600219726560,24.1037998199462900,27.8219795227050780,87,128,94,85,59,15000,2165944100,2167890578,2172307017,2149427190,2155788452,2156985600,2158733641,2148448877,2743,2,15,12349
1353454089,5807,63.4199981689453100,24.2840003967285160,35.1696014404296900,244.9761047363281200,29.7411193847656250,24.2509708404541000,27.7699108123779300,81,128,94,85,57,15009,2167142061,2169008969,2173345042,2149582656,2156562779,2157750857,2159360320,2148538404,3413,2,16,3300
1353454144,5807,62.3899993896484400,24.4058990478515620,35.1752014160156250,244.5171051025390600,25.8049507141113280,24.3732299804687500,27.7413597106933600,80,128,93,87,59,15011,2167576950,2169346660,2173550482,2149651392,2156967369,2158099437,2159592978,2148576393,139,2,16,31255
1353454306,5807,60.1399993896484400,24.6375007629394530,35.1870002746582000,243.0858001708984400,17.5387306213378900,24.6302509307861330,27.7024993896484380,78,126,92,85,59,14996,2169906742,2171448996,2175347017,2149941769,2158883657,2159877293,2160928411,2148749037,682,2,16,14106
1353454373,5808,58.0600013732910160,24.7296009063720700,35.1902999877929700,242.3506011962890600,14.2360200881958000,24.7330493927001950,27.6941795349121100,78,125,91,85,57,15008,2172051657,2173494016,2177278966,2150246418,2160674788,2161533952,2162260269,2148924480,793,2,16,19111
1353454440,5809,55.7700004577636700,24.8936004638671880,35.2038002014160160,241.0933074951172000,9.6490859985351560,24.8759098052978500,27.6933002471923830,76,124,89,85,58,15009,2174621101,2176075940,2179882834,2150715885,2162791917,2163544612,2163879030,2149161499,1000,2,16,56858
1353454495,5808,53.9500007629394500,25.0463008880615230,35.2173004150390600,240.0249023437500000,4.9721632003784180,25.0217094421386720,27.6832199096679700,77,124,92,85,57,15005,2176724452,2178268891,2182150674,2151127570,2164609929,2165262262,2165304502,2149377170,1682,1,16,38877
1353454585,5809,50.7999992370605500,25.1212997436523440,35.2243003845214840,238.6723937988281200,2.0367801189422607,25.1132698059082030,27.7074508666992200,71,124,90,85,58,14991,2181306112,2183060854,2187252114,2152200768,2168906349,2169294646,2168532050,2149880640,1205,2,16,45526
1353454640,5806,48.0200004577636700,25.1303005218505860,35.2254981994628900,238.4127960205078000,1.6272599697113037,25.1260509490966800,27.7140598297119140,70,123,91,83,56,14985,2184859931,2186769792,2191130550,2153177590,2172759387,2172834733,2171271497,2150321645,1305,2,16,38727
1353454695,5804,44.9300003051757800,25.1352005004882800,35.2257995605468750,238.2944946289062500,1.4334169626235962,25.1320991516113280,27.7168693542480470,69,123,91,84,58,14992,2188775652,2190822674,2195275300,2154490514,2177001737,2176678509,2174184987,2150850678,1595,2,16,50833
1353454750,5803,41.7599983215332000,25.1364994049072270,35.2262992858886700,238.2234954833984400,1.3402819633483887,25.1350097656250000,27.7190494537353500,70,126,96,85,56,14994,2193368000,2195581586,2200170112,2156137984,2181958500,2181212608,2177674614,2151506596,1969,2,16,45241
1353454805,5807,38.7000007629394500,25.1368007659912100,35.2263984680175800,238.3332977294922000,1.2814699411392212,25.1368408203125000,27.7133007049560550,70,125,90,84,57,14991,2197404489,2199638372,2204185682,2157989056,2186540882,2185258368,2180646674,2152161627,2217,2,16,7353
1353454860,5809,35.7500000000000000,25.1403007507324220,35.2257995605468750,238.4315032958984400,1.2124300003051758,25.1389999389648440,27.7080497741699220,69,123,93,84,57,14995,2201983634,2204229458,2208714322,2160247817,2191695213,2189856073,2184035611,2152952512,2339,1,16,7912
1353454918,5809,32.7200012207031250,25.1504993438720700,35.2261009216308600,238.5218048095703000,0.9220092892646790,25.1480598449707030,27.7005004882812500,67,124,91,85,57,14990,2207810358,2210203328,2214795373,2163231661,2198077248,2195580662,2188284288,2153989769,2565,1,16,17341
1353454973,5804,30.0400009155273440,25.1525993347167970,35.2266006469726560,238.5579986572265600,0.7376074790954590,25.1538200378417970,27.6965808868408200,65,121,91,84,55,14987,2213746861,2216309577,2221076763,2166789851,2204449572,2201297874,2192527963,2155137590,2598,2,16,65520